TimeAKDT,TemperatureF,Dew PointF,Humidity,Sea Level PressureIn,VisibilityMPH,Wind Direction,Wind SpeedMPH,Gust SpeedMPH,PrecipitationIn,Events,Conditions,WindDirDegrees,DateUTC
12:06 AM,55.9,54.0,93,29.99,10.0,East,12.7,-,0.00,Rain,Light Rain,100,2013-09-05 08:06:00
12:53 AM,55.0,54.0,96,30.00,4.0,East,8.1,-,0.01,Rain,Light Rain,100,2013-09-05 08:53:00
1:53 AM,54.0,53.1,97,30.01,6.0,East,9.2,-,0.02,Rain,Light Rain,80,2013-09-05 09:53:00
2:25 AM,54.0,54.0,100,30.01,2.5,ENE,8.1,-,0.01,Rain,Light Rain,70,2013-09-05 10:25:00
2:39 AM,55.0,54.0,96,30.02,5.0,ENE,9.2,-,0.02,Rain,Light Rain,60,2013-09-05 10:39:00
2:53 AM,55.0,54.0,96,30.02,8.0,East,8.1,-,0.02,Rain,Light Rain,80,2013-09-05 10:53:00
3:01 AM,55.0,54.0,96,30.02,7.0,ENE,9.2,-,0.00,Rain,Light Rain,70,2013-09-05 11:01:00
3:16 AM,54.0,53.1,97,30.03,10.0,East,8.1,-,0.00,Rain,Light Rain,80,2013-09-05 11:16:00
3:53 AM,55.0,54.0,96,30.05,10.0,Calm,Calm,-,0.00,Rain,Light Rain,0,2013-09-05 11:53:00
4:48 AM,53.6,53.6,100,30.07,10.0,Calm,Calm,-,0.00,,Overcast,0,2013-09-05 12:48:00
4:53 AM,54.0,53.1,97,30.06,10.0,WNW,3.5,-,0.00,,Overcast,300,2013-09-05 12:53:00
5:17 AM,54.0,54.0,100,30.07,10.0,Calm,Calm,-,N/A,Fog,Patches of Fog,0,2013-09-05 13:17:00
5:32 AM,54.0,53.1,97,30.07,5.0,NE,3.5,-,N/A,,Overcast,40,2013-09-05 13:32:00
5:42 AM,54.0,54.0,100,30.07,7.0,ENE,3.5,-,N/A,Fog,Patches of Fog,70,2013-09-05 13:42:00
5:53 AM,54.0,54.0,100,30.07,7.0,Calm,Calm,-,N/A,Fog,Patches of Fog,0,2013-09-05 13:53:00
6:09 AM,53.1,53.1,100,30.08,7.0,East,4.6,-,N/A,Fog,Patches of Fog,80,2013-09-05 14:09:00
6:53 AM,54.0,53.1,97,30.10,10.0,ENE,5.8,-,N/A,Fog,Patches of Fog,70,2013-09-05 14:53:00
7:36 AM,54.0,54.0,100,30.11,10.0,ESE,3.5,-,N/A,Fog,Patches of Fog,110,2013-09-05 15:36:00
7:53 AM,54.0,54.0,100,30.12,10.0,East,3.5,-,N/A,Fog,Patches of Fog,100,2013-09-05 15:53:00
8:53 AM,55.0,54.0,96,30.13,10.0,ENE,6.9,-,0.00,Rain,Light Rain,70,2013-09-05 16:53:00
9:53 AM,55.9,54.0,93,30.15,10.0,East,9.2,-,0.00,,Overcast,100,2013-09-05 17:53:00
10:53 AM,57.0,54.0,89,30.17,10.0,ENE,8.1,-,N/A,,Overcast,60,2013-09-05 18:53:00
11:53 AM,57.9,55.0,90,30.18,10.0,East,11.5,-,N/A,,Overcast,90,2013-09-05 19:53:00
12:53 PM,60.1,55.0,83,30.19,10.0,East,9.2,-,N/A,,Overcast,80,2013-09-05 20:53:00
1:53 PM,59.0,53.1,81,30.19,10.0,ENE,8.1,-,N/A,,Overcast,60,2013-09-05 21:53:00
2:53 PM,59.0,52.0,78,30.20,10.0,ENE,9.2,-,N/A,,Overcast,60,2013-09-05 22:53:00
3:53 PM,60.1,53.1,78,30.20,10.0,East,9.2,-,N/A,,Overcast,80,2013-09-05 23:53:00
4:53 PM,59.0,52.0,78,30.19,10.0,East,11.5,-,N/A,,Overcast,90,2013-09-06 00:53:00
5:53 PM,59.0,52.0,78,30.19,10.0,East,11.5,-,N/A,,Overcast,90,2013-09-06 01:53:00
6:53 PM,57.0,52.0,83,30.18,10.0,East,9.2,-,N/A,,Overcast,90,2013-09-06 02:53:00
7:53 PM,55.9,52.0,87,30.19,10.0,East,9.2,-,N/A,,Overcast,100,2013-09-06 03:53:00
8:53 PM,55.9,52.0,87,30.19,10.0,East,10.4,-,N/A,,Overcast,90,2013-09-06 04:53:00
9:53 PM,55.0,52.0,89,30.20,10.0,East,8.1,-,N/A,,Overcast,100,2013-09-06 05:53:00
10:53 PM,54.0,51.1,90,30.21,10.0,East,9.2,-,N/A,,Overcast,90,2013-09-06 06:53:00
11:53 PM,54.0,51.1,90,30.20,10.0,East,10.4,-,N/A,,Overcast,80,2013-09-06 07:53:00